Portada
METAR-TAF:

METAR-TAF

Aeropuertos :

Valence, Francia

latitud: 44-54-58N, longitud: 4-58-06E, altitud: 160 m

Observación

El informe se hizo hace 11 horas y 28 minutos, a las 18:00 UTC
Viento 3 kt del este-noreste
Temperatura 21°C
Humedad 56%
Presión 1013 hPa
Visibilidad 10 km o más

METAR: LFLU 201800Z AUTO 06003KT 9999 FEW076/// BKN120/// ///TCU 21/12 Q1013

Hora: 07:28 (05:28 UTC)


TAF: falta

Observaciones y pronósticos meteorológicos de más de 4000 aeropuertos (mensajes METAR y TAF).

Los puntos amarillos y rojos representan las estaciones disponibles.

Ponga el ratón en el punto deseado para ver el nombre de la estación.

Haga clic para ver las observaciones y los pronósticos meteorológicos.

Para cambiar el mapa : haga clic en los botones verdes con una cruz de color negro para hacer un zoom, en el botón verde con un guión para alejar o en las flechas verdes para mapas adyacentes.


METAR-TAF: